FW7734 Weather Reports


time (UTC)temp
C
wind
direction
speed
KPH
gust
KPH
rain 1hr
cm
rain 24hr
cm
rain mn
cm
humidity
%
barometer
mb
20260506134638 12 93 0.0 0.0 0.30 0.86 0.86 99 1008.8
20260506134133 12 107 0.0 0.0 0.30 0.84 0.84 99 1008.8
20260506133631 12 130 0.0 0.0 0.30 0.81 0.81 99 1009.3
20260506133128 12 139 0.0 0.0 0.48 0.79 0.79 99 1009.4
20260506132626 12 108 0.0 0.0 0.43 0.76 0.76 99 1009.4
20260506132122 12 105 0.0 0.0 0.30 0.71 0.71 99 1009.4
20260506131620 12 101 0.0 0.0 0.48 0.69 0.69 99 1009.4
20260506131115 12 101 0.0 0.0 0.43 0.66 0.66 99 1009.6
20260506130613 12 101 0.0 0.0 0.30 0.61 0.61 99 1009.4
20260506130110 12 101 0.0 0.0 0.36 0.58 0.58 99 1009.5
20260506125608 12 97 0.0 0.0 0.48 0.56 0.56 99 1009.4
20260506125106 12 91 0.0 0.0 0.30 0.51 0.51 99 1009.4
20260506124603 12 90 0.0 0.0 0.30 0.48 0.48 99 1009.3
20260506124101 12 90 0.0 0.0 0.30 0.46 0.46 99 1009.2
20260506123558 12 89 0.0 0.0 0.30 0.43 0.43 99 1009.1
20260506123057 12 88 0.0 0.0 0.30 0.41 0.41 99 1009.0
20260506122553 12 89 0.0 0.0 0.13 0.38 0.38 99 1008.9
20260506122051 12 93 0.0 0.0 0.18 0.36 0.36 99 1009.0
20260506121549 12 93 0.0 0.0 0.18 0.36 0.36 99 1009.2
20260506121044 12 93 0.0 0.0 0.13 0.33 0.33 99 1009.1
20260506120543 12 93 0.0 0.0 0.13 0.33 0.33 99 1009.1
20260506120040 12 94 0.0 0.0 0.00 0.30 0.30 99 1009.4
20260506115538 12 87 0.0 0.0 0.18 0.30 0.30 99 1009.2
20260506115036 12 87 0.0 0.0 0.18 0.30 0.30 99 1009.3
20260506114533 12 87 0.0 0.0 0.18 0.28 0.28 99 1009.4
20260506114032 11 83 0.0 0.0 0.18 0.28 0.28 99 1009.4
20260506113529 11 101 0.0 0.0 0.13 0.25 0.25 99 1009.0
20260506113026 11 80 0.0 0.0 0.30 0.25 0.25 99 1009.2
20260506112522 11 91 0.0 0.0 0.18 0.23 0.23 99 1009.2
20260506112020 11 94 0.0 0.0 0.13 0.20 0.20 99 1009.1
20260506111518 11 94 0.0 0.0 0.30 0.20 0.20 99 1009.0
20260506111015 11 112 0.0 0.0 0.30 0.18 0.18 99 1009.2
20260506110512 11 88 0.0 0.0 0.13 0.15 0.15 99 1009.3
20260506110009 11 78 0.0 0.0 0.18 0.13 0.13 99 1009.4
20260506105505 11 77 0.0 0.0 0.18 0.13 0.13 99 1009.4
20260506105003 11 77 0.0 0.0 0.13 0.10 0.10 99 1009.3
20260506104501 11 77 0.0 0.0 0.13 0.10 0.10 99 1009.3
20260506103959 11 72 0.0 0.0 0.00 0.08 0.08 99 1009.3
20260506103455 11 79 0.0 0.0 0.18 0.08 0.08 99 1009.2
20260506102952 11 79 0.0 0.0 0.18 0.08 0.08 99 1009.1
20260506102450 11 78 0.0 0.0 0.00 0.05 0.05 99 1009.2
20260506101947 11 77 0.0 0.0 0.00 0.05 0.05 99 1009.0
20260506101444 11 75 0.0 0.0 0.13 0.05 0.05 99 1008.9
20260506100941 11 60 0.0 0.0 0.13 0.05 0.05 99 1008.8
20260506100439 11 69 0.0 0.0 0.00 0.03 0.03 99 1008.9
20260506095937 11 78 0.0 0.0 0.00 0.03 0.03 99 1008.7
20260506095435 11 77 0.0 0.0 0.18 0.03 0.03 99 1008.8
20260506094931 11 78 0.0 0.0 0.18 0.03 0.03 99 1008.8
20260506094430 11 78 0.0 0.0 0.00 0.00 0.00 99 1008.8
20260506093927 11 78 0.0 0.0 0.00 0.00 0.00 99 1008.9
20260506093425 11 53 0.0 0.0 0.00 0.00 0.00 99 1008.8
20260506092923 11 32 0.0 0.0 0.00 0.00 0.00 99 1008.7
20260506092420 11 75 0.0 0.0 0.00 0.00 0.00 99 1008.9
20260506091916 11 80 0.0 0.0 0.00 0.00 0.00 99 1008.7
20260506091415 11 80 0.0 0.0 0.00 0.00 0.00 99 1008.6
20260506090912 11 80 0.0 0.0 0.00 0.00 0.00 99 1008.5
20260506090409 11 80 0.0 0.0 0.00 0.00 0.00 99 1008.6
20260506085906 11 80 0.0 0.0 0.00 0.00 0.00 99 1008.7
20260506085403 11 80 0.0 0.0 0.00 0.00 0.00 99 1008.7
20260506084859 11 60 1.6 1.6 0.00 0.00 0.00 99 1008.7
20260506084355 11 80 0.0 0.0 0.00 0.00 0.00 99 1009.0
20260506083852 11 80 0.0 0.0 0.00 0.00 0.00 99 1008.8
20260506083350 11 80 0.0 0.0 0.00 0.00 0.00 99 1008.9
20260506082847 11 77 0.0 1.6 0.00 0.00 0.00 99 1009.1
20260506082344 11 70 1.6 1.6 0.00 0.00 0.00 99 1008.9
20260506081839 11 79 1.6 1.6 0.00 0.00 0.00 99 1008.6
20260506081338 11 79 0.0 0.0 0.00 0.00 0.00 99 1008.7
20260506080835 11 79 0.0 0.0 0.00 0.00 0.00 99 1008.6
20260506080331 11 69 1.6 1.6 0.00 0.00 0.00 99 1008.6
20260506073315 11 82 0.0 0.0 0.00 0.00 0.00 99 1008.8
20260506072812 11 77 0.0 0.0 0.00 0.00 0.00 99 1008.9
20260506072309 11 83 1.6 3.2 0.00 0.00 0.00 99 1009.0
20260506071807 11 84 0.0 1.6 0.00 0.00 0.00 99 1008.9
20260506071306 11 109 0.0 0.0 0.00 0.00 0.00 99 1008.9
20260506070802 11 93 1.6 4.8 0.00 0.00 0.00 99 1009.0
20260506070259 11 82 0.0 0.0 0.00 0.00 0.00 99 1009.0
20260506062236 11 78 0.0 0.0 0.00 0.00 0.00 99 1009.3
20260506061731 11 54 1.6 1.6 0.00 0.00 0.00 99 1009.3
20260506061230 11 79 0.0 1.6 0.00 0.00 0.00 99 1009.4
20260506060728 11 78 1.6 3.2 0.00 0.00 0.00 99 1009.7
20260506060225 11 88 1.6 1.6 0.00 0.00 0.00 99 1009.8
20260506051156 12 64 1.6 1.6 0.00 0.00 0.00 99 1010.4
20260506050654 12 14 1.6 3.2 0.00 0.00 0.00 99 1010.2
20260506050146 11 72 1.6 1.6 0.00 0.00 0.00 99 1010.1
20260506044637 12 40 1.6 3.2 0.00 0.00 0.00 99 1010.1
20260506044134 12 35 3.2 3.2 0.00 0.00 0.00 99 1010.3
20260506043631 12 63 1.6 1.6 0.00 0.00 0.00 99 1010.4
20260506043129 12 62 1.6 1.6 0.00 0.00 0.00 99 1010.3
20260506042628 12 90 0.0 0.0 0.00 0.00 0.00 99 1010.4
20260506042125 12 67 0.0 1.6 0.00 0.00 0.00 99 1010.6
20260506041624 12 13 3.2 3.2 0.00 0.00 0.00 99 1010.4
20260506041120 12 3 4.8 4.8 0.00 0.00 0.00 99 1010.6
20260506040618 12 67 1.6 1.6 0.00 0.00 0.00 99 1010.7
20260506040115 12 70 0.0 0.0 0.00 0.15 0.15 98 1010.6
20260506035611 12 70 0.0 1.6 0.00 0.15 0.15 98 1010.6
20260506035108 12 17 3.2 3.2 0.00 0.15 0.15 98 1010.7
20260506034605 12 32 3.2 3.2 0.00 0.15 0.15 98 1010.5
20260506034102 12 68 1.6 1.6 0.00 0.15 0.15 99 1010.4
20260506033559 12 77 0.0 0.0 0.00 0.15 0.15 98 1010.6
20260506033056 12 66 1.6 1.6 0.00 0.15 0.15 98 1010.5
20260506032553 12 60 1.6 1.6 0.00 0.15 0.15 99 1010.4
20260506032050 12 57 1.6 1.6 0.00 0.15 0.15 98 1010.6
20260506031548 12 53 3.2 3.2 0.00 0.15 0.15 98 1010.4
20260506031044 12 80 1.6 1.6 0.00 0.15 0.15 98 1010.4
20260506030543 12 72 3.2 3.2 0.00 0.15 0.15 98 1010.2
20260506030040 13 113 1.6 1.6 0.00 0.15 0.15 97 1010.2
20260506025537 13 56 1.6 1.6 0.00 0.15 0.15 98 1010.4
20260506025033 13 57 1.6 1.6 0.00 0.15 0.15 98 1010.0
20260506024530 13 48 1.6 1.6 0.00 0.15 0.15 97 1010.2
20260506024026 13 41 3.2 3.2 0.00 0.15 0.15 98 1010.1
20260506023522 13 6 3.2 3.2 0.00 0.15 0.15 97 1010.1
20260506023020 13 55 1.6 1.6 0.00 0.15 0.15 97 1010.0
20260506022517 13 24 3.2 3.2 0.00 0.15 0.15 97 1010.1
20260506022015 13 60 1.6 3.2 0.00 0.15 0.15 97 1010.1
20260506021512 13 60 1.6 3.2 0.00 0.15 0.15 97 1010.1
20260506021009 13 68 1.6 1.6 0.00 0.15 0.15 97 1009.8
20260506020507 13 59 1.6 1.6 0.00 0.15 0.15 97 1009.8
20260506020004 14 71 0.0 1.6 0.00 0.15 0.15 96 1010.0
20260506015501 14 70 1.6 1.6 0.00 0.15 0.15 96 1010.0
20260506014958 14 71 0.0 0.0 0.00 0.15 0.15 96 1009.8
20260506014455 14 71 0.0 0.0 0.00 0.15 0.15 96 1010.0
20260506013951 14 71 1.6 4.8 0.00 0.15 0.15 96 1009.9
20260506013449 14 71 0.0 0.0 0.00 0.15 0.15 96 1010.0
20260506012945 14 69 1.6 3.2 0.00 0.15 0.15 96 1009.7
20260506012442 14 66 3.2 4.8 0.00 0.15 0.15 96 1009.8
20260506011939 15 80 0.0 0.0 0.00 0.15 0.15 96 1009.8
20260506011436 15 80 0.0 0.0 0.00 0.15 0.15 95 1009.7
20260506010933 15 80 0.0 0.0 0.00 0.15 0.15 95 1009.5
20260506010432 15 75 3.2 3.2 0.00 0.15 0.15 95 1009.5
20260506005927 15 82 0.0 0.0 0.00 0.15 0.15 95 1009.5
20260506005426 15 72 0.0 0.0 0.00 0.15 0.15 94 1009.6
20260506004920 15 72 0.0 0.0 0.00 0.15 0.15 94 1009.4
20260506004419 15 72 0.0 0.0 0.00 0.15 0.15 94 1009.2
20260506003914 15 72 3.2 3.2 0.00 0.15 0.15 94 1009.3
20260506003411 15 72 0.0 0.0 0.00 0.15 0.15 94 1009.3
20260506002908 15 68 4.8 4.8 0.00 0.15 0.15 94 1009.4
20260506002404 15 68 4.8 4.8 0.00 0.15 0.15 94 1009.2
20260506001859 16 73 4.8 4.8 0.00 0.15 0.15 94 1009.4
20260506001356 16 72 0.0 0.0 0.00 0.15 0.15 93 1009.3
20260506000854 16 74 3.2 3.2 0.00 0.15 0.15 93 1009.2
20260506000353 16 75 3.2 8.0 0.00 0.15 0.15 93 1009.5
20260505235848 16 66 3.2 3.2 0.00 0.15 0.15 93 1009.3
20260505235345 16 61 3.2 4.8 0.00 0.15 0.15 92 1009.5
20260505234842 16 78 1.6 1.6 0.00 0.15 0.15 92 1009.4
20260505234340 16 78 0.0 0.0 0.00 0.15 0.15 92 1009.2
20260505233836 16 78 1.6 1.6 0.00 0.15 0.15 91 1009.0
20260505233335 16 78 3.2 3.2 0.00 0.15 0.15 91 1009.3
20260505232832 17 78 0.0 0.0 0.00 0.15 0.15 90 1009.4
20260505232330 17 78 0.0 0.0 0.00 0.15 0.15 90 1009.4
20260505231825 17 78 0.0 0.0 0.00 0.15 0.15 89 1009.2
20260505231324 17 78 0.0 1.6 0.00 0.15 0.15 89 1009.0
20260505230822 17 78 3.2 3.2 0.00 0.15 0.15 88 1009.0
20260505230318 17 79 1.6 3.2 0.00 0.15 0.15 87 1009.0
20260505225815 17 97 0.0 0.0 0.00 0.15 0.15 86 1009.0
20260505225313 17 97 0.0 0.0 0.00 0.15 0.15 85 1009.0
20260505224807 18 95 3.2 3.2 0.00 0.15 0.15 84 1008.8
20260505224306 18 48 4.8 8.0 0.00 0.15 0.15 81 1008.9
20260505223803 18 53 4.8 8.0 0.00 0.15 0.15 80 1008.8
20260505223300 18 39 4.8 8.0 0.00 0.15 0.15 83 1008.8
20260505222755 18 3 6.4 8.0 0.00 0.15 0.15 87 1008.7
20260505222251 18 12 4.8 4.8 0.00 0.15 0.15 84 1008.3
20260505221749 18 68 3.2 4.8 0.00 0.15 0.15 76 1008.1
20260505221245 17 27 3.2 3.2 0.00 0.15 0.15 84 1008.3
20260505220742 18 57 4.8 4.8 0.00 0.15 0.15 86 1008.0
20260505220239 18 31 4.8 4.8 0.00 0.15 0.15 86 1008.1
20260505215737 18 74 3.2 4.8 0.00 0.15 0.15 81 1008.1
20260505215235 18 49 4.8 8.0 0.00 0.15 0.15 80 1008.2
20260505214733 18 116 4.8 4.8 0.00 0.15 0.15 80 1008.3
20260505214230 19 151 6.4 8.0 0.00 0.15 0.15 80 1008.3
20260505213727 19 165 4.8 8.0 0.00 0.15 0.15 79 1008.4
20260505213224 18 135 3.2 4.8 0.00 0.15 0.15 77 1008.5
20260505212720 18 60 4.8 4.8 0.00 0.15 0.15 79 1008.6
20260505212218 17 36 3.2 3.2 0.00 0.15 0.15 83 1008.7
20260505211714 18 339 6.4 9.7 0.00 0.15 0.15 84 1008.1
20260505211211 17 58 3.2 4.8 0.00 0.15 0.15 84 1008.1
20260505210707 18 332 4.8 4.8 0.00 0.15 0.15 89 1008.3
20260505210204 18 47 3.2 3.2 0.00 0.15 0.15 88 1008.0
20260505205657 19 50 4.8 4.8 0.00 0.15 0.15 86 1007.7
20260505205155 20 76 1.6 1.6 0.00 0.15 0.15 76 1008.0
20260505204651 18 75 3.2 3.2 0.00 0.15 0.15 83 1007.8
20260505204149 18 93 0.0 1.6 0.00 0.15 0.15 84 1007.7
20260505203646 18 81 1.6 1.6 0.00 0.15 0.15 84 1008.0
20260505203143 19 93 4.8 4.8 0.30 0.15 0.15 77 1007.8
20260505202638 19 190 6.4 9.7 0.30 0.15 0.15 68 1008.1
20260505202134 18 272 8.0 9.7 0.48 0.10 0.10 74 1008.2
20260505201631 20 73 4.8 4.8 0.61 0.10 0.10 67 1007.7
20260505201129 23 106 4.8 9.7 0.13 0.03 0.03 54 1007.8
20260505200627 23 143 1.6 3.2 0.00 0.00 0.00 44 1007.7
20260505200124 23 56 4.8 8.0 0.00 0.00 0.00 44 1007.3
20260505195620 23 178 9.7 12.9 0.00 0.00 0.00 44 1007.2
20260505195117 23 143 9.7 14.5 0.00 0.00 0.00 44 1007.2
20260505194614 23 108 9.7 11.3 0.00 0.00 0.00 44 1007.1
20260505194109 23 97 4.8 4.8 0.00 0.00 0.00 45 1007.0
20260505193607 23 156 11.3 14.5 0.00 0.00 0.00 45 1007.3
20260505193104 24 129 6.4 11.3 0.00 0.00 0.00 45 1007.2
20260505192602 24 116 16.1 17.7 0.00 0.00 0.00 44 1007.1
20260505192059 25 192 9.7 11.3 0.00 0.00 0.00 45 1007.3
20260505191558 26 160 24.1 29.0 0.00 0.00 0.00 44 1007.3
20260505191055 25 210 14.5 16.1 0.00 0.00 0.00 44 1007.4
20260505190550 25 152 14.5 20.9 0.00 0.00 0.00 44 1007.5
20260505190046 25 116 12.9 16.1 0.00 0.00 0.00 44 1007.6
20260505185543 25 215 17.7 22.5 0.00 0.00 0.00 42 1007.6
20260505185039 24 96 6.4 8.0 0.00 0.00 0.00 44 1007.8
20260505184536 23 114 9.7 11.3 0.00 0.00 0.00 45 1007.8
20260505184033 24 114 11.3 14.5 0.00 0.00 0.00 44 1007.8
20260505183530 25 99 9.7 14.5 0.00 0.00 0.00 43 1007.8
20260505183028 24 148 6.4 8.0 0.00 0.00 0.00 45 1007.8
20260505182524 25 182 11.3 14.5 0.00 0.00 0.00 43 1008.1
20260505182020 25 217 14.5 20.9 0.00 0.00 0.00 44 1008.1
20260505181511 25 189 14.5 22.5 0.00 0.00 0.00 43 1008.0
20260505181008 25 122 8.0 12.9 0.00 0.00 0.00 44 1008.2
20260505180504 25 64 4.8 8.0 0.00 0.00 0.00 44 1008.3
20260505180002 25 122 14.5 16.1 0.00 0.00 0.00 42 1008.4
20260505175457 25 343 11.3 20.9 0.00 0.00 0.00 41 1008.7
20260505174954 25 91 3.2 3.2 0.00 0.00 0.00 41 1008.8
20260505174451 25 193 6.4 9.7 0.00 0.00 0.00 42 1008.9
20260505173947 25 119 17.7 22.5 0.00 0.00 0.00 42 1008.8
20260505173444 25 191 20.9 33.8 0.00 0.00 0.00 42 1008.9
20260505172941 25 216 8.0 11.3 0.00 0.00 0.00 43 1008.5
20260505172439 25 205 4.8 8.0 0.00 0.00 0.00 43 1008.8
20260505171938 25 121 6.4 11.3 0.00 0.00 0.00 43 1008.6
20260505171436 25 154 11.3 12.9 0.00 0.00 0.00 45 1008.6
20260505170932 25 103 4.8 8.0 0.00 0.00 0.00 45 1008.7
20260505170429 25 180 11.3 14.5 0.00 0.00 0.00 46 1008.8
20260505165924 24 147 16.1 22.5 0.00 0.00 0.00 47 1008.6
20260505165420 25 9 9.7 11.3 0.00 0.00 0.00 46 1008.8
20260505164916 24 147 11.3 14.5 0.00 0.00 0.00 48 1008.6
20260505164413 25 202 6.4 9.7 0.00 0.00 0.00 47 1008.7
20260505163911 24 68 4.8 8.0 0.00 0.00 0.00 48 1009.1
20260505163410 24 115 6.4 12.9 0.00 0.00 0.00 48 1009.3
20260505162908 23 188 6.4 8.0 0.00 0.00 0.00 50 1009.1
20260505162403 23 155 14.5 16.1 0.00 0.00 0.00 49 1009.3
20260505161900 23 134 14.5 16.1 0.00 0.00 0.00 50 1009.5
20260505161357 23 116 8.0 11.3 0.00 0.00 0.00 50 1009.4
20260505160854 23 178 14.5 17.7 0.00 0.00 0.00 51 1009.5
20260505160353 23 156 19.3 25.7 0.00 0.00 0.00 50 1009.1
20260505153331 23 110 4.8 8.0 0.00 0.00 0.00 51 1009.7
20260505152828 23 153 11.3 14.5 0.00 0.00 0.00 52 1009.7
20260505152325 23 105 8.0 12.9 0.00 0.00 0.00 54 1009.7
20260505151819 22 165 14.5 24.1 0.00 0.00 0.00 54 1009.5
20260505151317 22 200 9.7 12.9 0.00 0.00 0.00 53 1009.7
20260505150813 22 169 6.4 9.7 0.00 0.00 0.00 53 1009.9
20260505150310 22 162 9.7 12.9 0.00 0.00 0.00 54 1009.8
20260505140235 20 158 11.3 17.7 0.00 0.00 0.00 59 1010.0